Starlink 5287

operational
NORAD ID: 55293 Int'l Des: 2023-010 Owner: SPXS Country: US Constellation: starlink
LEOCIRCULAR

About Starlink 5287

Description loading...

Live Position

Loading 3D Globe...

Upcoming Passes

Altitude History

Altitude vs Time

uPlot chart will show altitude changes over time

Two-Line Element Set

1 55293U 23010AA 25258.58341435 .00010331 00000-0 87241-3 0 9998
2 55293 70.0007 105.9489 0003286 266.3378 333.5894 14.98325024 5716
Epoch: Sep 15, 2025 • Age: 11 hours

Current Status

Altitude 574.0 km
Velocity 7.57 km/s
Sub-Earth Point 11.54°N, 88.11°W
Launch Date Jan 19, 2023
Age 2.6 years
Type internet

Technical Details

Classification Payload
Mass 305.00 kg
Dry Mass 290.00 kg
Total Mass 305.00 kg
Length 0.20 m
Diameter 2.80 m
Span 9.00 m
Shape Box + pan
Manufacturer SPXS
Bus Type Starlink
Phase Status In Orbit
Owner/State SPXS/US

Large Constellations

Loading constellations...